TimeCDT,TemperatureF,Dew PointF,Humidity,Sea Level PressureIn,VisibilityMPH,Wind Direction,Wind SpeedMPH,Gust SpeedMPH,PrecipitationIn,Events,Conditions,WindDirDegrees,DateUTC
12:02 AM,60.8,55.4,82,29.98,10.0,NNW,9.2,-,N/A,,Mostly Cloudy,340,2013-05-11 05:02:00
12:53 AM,57.9,54.0,87,29.97,10.0,NNW,3.5,-,N/A,,Scattered Clouds,340,2013-05-11 05:53:00
1:53 AM,57.0,53.1,87,29.96,10.0,NNW,3.5,-,N/A,,Clear,340,2013-05-11 06:53:00
2:53 AM,55.9,53.1,90,29.95,10.0,NNW,5.8,-,N/A,,Clear,330,2013-05-11 07:53:00
3:53 AM,55.0,50.0,83,29.96,10.0,NW,5.8,-,N/A,,Clear,320,2013-05-11 08:53:00
4:53 AM,55.0,51.1,86,29.96,10.0,NNW,4.6,-,N/A,,Mostly Cloudy,340,2013-05-11 09:53:00
5:53 AM,54.0,51.1,90,29.97,10.0,NNW,4.6,-,N/A,,Mostly Cloudy,340,2013-05-11 10:53:00
6:53 AM,55.9,52.0,87,29.99,10.0,NW,3.5,-,N/A,,Overcast,320,2013-05-11 11:53:00
7:53 AM,55.9,52.0,87,29.99,10.0,NW,4.6,-,N/A,,Overcast,310,2013-05-11 12:53:00
8:53 AM,57.0,50.0,77,30.01,10.0,NW,6.9,-,N/A,,Overcast,320,2013-05-11 13:53:00
9:53 AM,59.0,51.1,75,30.00,10.0,Variable,5.8,-,N/A,,Overcast,0,2013-05-11 14:53:00
10:53 AM,60.1,51.1,72,30.02,10.0,WNW,9.2,-,N/A,,Overcast,290,2013-05-11 15:53:00
11:16 AM,62.6,51.8,68,30.03,10.0,WNW,4.6,-,N/A,,Overcast,300,2013-05-11 16:16:00
11:53 AM,64.0,52.0,65,30.02,10.0,NNW,6.9,-,N/A,,Mostly Cloudy,330,2013-05-11 16:53:00
12:53 PM,66.0,53.1,63,30.01,10.0,NNW,9.2,-,N/A,,Mostly Cloudy,340,2013-05-11 17:53:00
1:53 PM,69.1,51.1,53,29.99,10.0,North,9.2,16.1,N/A,,Partly Cloudy,10,2013-05-11 18:53:00
2:53 PM,70.0,50.0,49,29.99,10.0,NW,5.8,-,N/A,,Partly Cloudy,320,2013-05-11 19:53:00
3:53 PM,70.0,48.9,47,29.98,10.0,NNW,10.4,-,N/A,,Scattered Clouds,340,2013-05-11 20:53:00
4:53 PM,72.0,50.0,46,29.96,10.0,Variable,6.9,-,N/A,,Clear,0,2013-05-11 21:53:00
5:53 PM,69.1,50.0,51,29.96,10.0,WNW,9.2,-,N/A,,Mostly Cloudy,290,2013-05-11 22:53:00
6:53 PM,66.0,54.0,65,29.97,10.0,North,4.6,-,N/A,,Overcast,350,2013-05-11 23:53:00
7:53 PM,64.0,42.1,45,30.00,10.0,North,11.5,-,N/A,,Mostly Cloudy,350,2013-05-12 00:53:00
8:53 PM,62.1,37.9,41,30.05,10.0,North,15.0,21.9,N/A,,Mostly Cloudy,350,2013-05-12 01:53:00
9:53 PM,57.9,37.0,46,30.08,10.0,North,15.0,-,N/A,,Clear,360,2013-05-12 02:53:00
10:53 PM,55.9,37.0,49,30.11,10.0,North,13.8,18.4,N/A,,Clear,360,2013-05-12 03:53:00
11:53 PM,52.0,37.0,57,30.12,10.0,North,3.5,-,N/A,,Clear,350,2013-05-12 04:53:00